Date String (YYYY-MM-DD hh:mm:ss) UTC,Instrument flags,Ambient pressure (hPa),Sample flow (lpm),Bypass flow (lpm),Sample temperature (°C),Ambient temperature (°C),ASC tube jacket temperature (°C),LED temperature (°C),Box temperature (°C),Sample RH (%),Span deviation,Mass concentration (μg/m³),Mass concentration (μg/m³),Mass concentration (μg/m³)
DateTimeUTC,F1_M11,P_M11,Q1_M11,Q2_M11,T1_M11,T2_M11,T3_M11,T4_M11,T5_M11,U1_M11,ZSPAN_M11,X2_M11,X0_M11,X1_M11
2023-05-01 19:00:00,,0827.8,5.00,0.00,28.7,27.5,00.0,36.9,30.2,15.0,0002.9,0010.82,0022.84,0008.97
2023-05-01 19:01:00,,0827.8,5.02,0.00,28.7,27.5,00.0,37.0,30.2,14.9,0002.9,0010.85,0023.66,0008.99
2023-05-01 19:02:00,,0827.7,5.00,0.00,28.7,27.5,00.0,37.0,30.3,15.1,0003.3,0010.90,0023.37,0009.00
2023-05-01 19:03:00,,0827.8,4.99,0.00,28.7,27.5,00.0,37.0,30.3,14.8,0004.1,0010.88,0022.54,0009.02
2023-05-01 19:04:00,,0827.8,5.00,0.00,28.7,27.5,00.0,37.0,30.3,14.8,0003.8,0010.85,0022.11,0009.04
2023-05-01 19:05:00,,0827.8,5.00,0.00,28.7,27.5,00.0,37.0,30.3,14.5,0004.0,0010.86,0022.30,0009.07
2023-05-01 19:06:00,,0827.8,5.00,0.00,28.7,27.6,00.0,37.0,30.2,14.6,0003.9,0010.88,0022.82,0009.10
2023-05-01 19:07:00,,0827.8,5.01,0.00,28.8,27.6,00.0,37.1,30.3,14.6,0004.2,0010.96,0023.17,0009.14
2023-05-01 19:08:00,,0827.8,5.00,0.00,28.8,27.6,00.0,37.1,30.3,14.5,0000.9,0010.99,0023.03,0009.20
2023-05-01 19:09:00,,0827.8,4.98,0.00,28.8,27.6,00.0,37.1,30.3,14.8,0000.6,0011.06,0022.97,0009.26
2023-05-01 19:10:00,,0827.8,5.02,0.00,28.8,27.6,00.0,37.1,30.3,14.8,0002.4,0011.01,0021.57,0009.27
2023-05-01 19:11:00,,0827.8,5.00,0.00,28.8,27.6,00.0,37.1,30.4,14.6,0000.0,0010.97,0021.61,0009.27
2023-05-01 19:12:00,,0827.8,4.99,0.00,28.8,27.6,00.0,37.1,30.4,14.6,0000.0,0011.04,0022.44,0009.28
2023-05-01 19:13:00,,0827.7,5.00,0.00,28.8,27.5,00.0,37.1,30.4,14.6,0000.0,0011.09,0022.04,0009.31
2023-05-01 19:14:00,,0827.7,4.99,0.00,28.8,27.5,00.0,37.1,30.4,14.8,0000.0,0011.06,0022.03,0009.30
2023-05-01 19:15:00,,0827.7,4.99,0.00,28.8,27.6,00.0,37.2,30.4,14.7,0002.8,0011.03,0021.85,0009.30
2023-05-01 19:16:00,,0827.7,5.02,0.00,28.8,27.6,00.0,37.2,30.4,14.9,0004.2,0010.94,0020.99,0009.28
2023-05-01 19:17:00,,0827.7,5.00,0.00,28.9,27.6,00.0,37.2,30.4,14.6,0004.5,0010.87,0020.15,0009.25
2023-05-01 19:18:00,,0827.7,4.99,0.00,28.9,27.7,00.0,37.2,30.4,14.8,0003.7,0010.85,0020.47,0009.23
2023-05-01 19:19:00,,0827.7,5.00,0.00,28.9,27.7,00.0,37.2,30.5,14.9,0003.5,0010.88,0020.99,0009.18
2023-05-01 19:20:00,,0827.7,4.99,0.00,28.9,27.7,00.0,37.2,30.5,14.4,0003.4,0010.80,0020.66,0009.16
2023-05-01 19:21:00,,0827.7,5.00,0.00,28.9,27.7,00.0,37.2,30.5,14.6,0002.8,0010.74,0021.51,0009.14
2023-05-01 19:22:00,,0827.7,5.00,0.00,28.9,27.7,00.0,37.2,30.5,14.3,0002.4,0010.72,0021.48,0009.13
2023-05-01 19:23:00,,0827.7,5.01,0.00,28.9,27.6,00.0,37.2,30.5,14.4,0001.7,0010.65,0019.38,0009.11
2023-05-01 19:24:00,,0827.7,5.00,0.00,28.9,27.6,00.0,37.2,30.5,14.4,0002.2,0010.58,0020.89,0009.08
2023-05-01 19:25:00,,0827.7,5.00,0.00,28.9,27.6,00.0,37.3,30.5,14.7,0002.2,0010.56,0021.37,0009.05
2023-05-01 19:26:00,,0827.7,5.01,0.00,28.9,27.7,00.0,37.3,30.5,14.7,0001.0,0010.50,0021.89,0009.01
2023-05-01 19:27:00,,0827.7,5.00,0.00,29.0,27.7,00.0,37.3,30.5,14.5,0000.0,0010.62,0022.21,0008.97
2023-05-01 19:28:00,,0827.7,4.99,0.00,29.0,27.7,00.0,37.3,30.5,14.3,0000.0,0010.64,0022.92,0008.94
2023-05-01 19:29:00,,0827.7,4.99,0.00,29.0,27.7,00.0,37.3,30.5,14.2,0000.0,0010.64,0022.96,0008.94
2023-05-01 19:30:00,,0827.7,5.02,0.00,29.0,27.7,00.0,37.3,30.5,14.2,0002.4,0010.58,0022.60,0008.92
2023-05-01 19:31:00,,0827.7,5.00,0.00,29.0,27.8,00.0,37.3,30.5,14.2,0003.4,0010.57,0023.75,0008.90
2023-05-01 19:32:00,,0827.7,4.99,0.00,29.0,27.8,00.0,37.3,30.5,14.4,0003.1,0010.56,0023.73,0008.87
2023-05-01 19:33:00,,0827.7,4.99,0.00,29.0,27.7,00.0,37.3,30.5,14.3,0000.8,0010.56,0023.07,0008.84
2023-05-01 19:34:00,,0827.7,4.99,0.00,29.0,27.7,00.0,37.3,30.5,14.5,0000.0,0010.69,0023.26,0008.87
2023-05-01 19:35:00,,0827.7,5.02,0.00,29.0,27.7,00.0,37.3,30.5,14.7,0000.0,0010.67,0021.80,0008.88
2023-05-01 19:36:00,,0827.7,5.00,0.00,29.0,27.7,00.0,37.4,30.5,14.6,0000.0,0010.66,0021.30,0008.90
2023-05-01 19:37:00,,0827.7,4.99,0.00,29.0,27.7,00.0,37.4,30.5,14.6,0000.0,0010.69,0021.92,0008.92
2023-05-01 19:38:00,,0827.7,5.00,0.00,29.0,27.7,00.0,37.4,30.5,14.8,0000.0,0010.62,0022.20,0008.93
2023-05-01 19:39:00,,0827.7,4.99,0.00,29.0,27.7,00.0,37.4,30.6,14.5,0000.0,0010.63,0022.14,0008.94
2023-05-01 19:40:00,,0827.7,5.01,0.00,29.0,27.7,00.0,37.4,30.6,14.6,0000.0,0010.70,0022.15,0008.95
2023-05-01 19:41:00,,0827.7,5.00,0.00,29.1,27.8,00.0,37.4,30.7,14.6,0000.0,0010.76,0022.10,0008.99
2023-05-01 19:42:00,,0827.6,5.00,0.00,29.1,27.8,00.0,37.4,30.7,14.9,0000.5,0010.80,0021.49,0009.03
2023-05-01 19:43:00,,0827.6,4.99,0.00,29.1,27.8,00.0,37.4,30.7,14.8,0000.3,0010.86,0022.01,0009.05
2023-05-01 19:44:00,,0827.5,5.00,0.00,29.1,27.8,00.0,37.4,30.7,14.8,0000.5,0010.83,0022.49,0009.06
2023-05-01 19:45:00,,0827.5,4.99,0.00,29.1,27.8,00.0,37.4,30.6,14.5,0002.3,0010.80,0023.09,0009.04
2023-05-01 19:46:00,,0827.6,4.99,0.00,29.1,27.7,00.0,37.4,30.6,14.8,0002.4,0010.75,0024.11,0009.03
2023-05-01 19:47:00,,0827.5,5.00,0.00,29.1,27.7,00.0,37.4,30.6,14.7,0002.2,0010.75,0024.61,0009.04
2023-05-01 19:48:00,,0827.5,5.02,0.00,29.1,27.7,00.0,37.4,30.6,14.8,0003.4,0010.77,0023.63,0009.06
2023-05-01 19:49:00,,0827.5,4.98,0.00,29.1,27.8,00.0,37.5,30.6,14.6,0004.0,0010.79,0023.78,0009.07
2023-05-01 19:50:00,,0827.6,5.02,0.00,29.1,27.8,00.0,37.5,30.6,14.3,0004.0,0010.79,0023.61,0009.07
2023-05-01 19:51:00,,0827.6,4.99,0.00,29.1,27.9,00.0,37.5,30.7,14.6,0004.3,0010.81,0022.83,0009.10
2023-05-01 19:52:00,,0827.6,4.99,0.00,29.1,27.9,00.0,37.5,30.7,14.5,0004.6,0010.87,0022.61,0009.13
2023-05-01 19:53:00,,0827.7,5.02,0.00,29.1,27.9,00.0,37.5,30.7,14.4,0002.4,0010.89,0023.08,0009.13
2023-05-01 19:54:00,,0827.7,4.99,0.00,29.1,27.9,00.0,37.5,30.7,14.3,0002.6,0010.94,0022.50,0009.14
2023-05-01 19:55:00,,0827.7,5.00,0.00,29.2,27.9,00.0,37.5,30.7,14.3,0003.8,0010.93,0021.74,0009.15
2023-05-01 19:56:00,,0827.7,5.00,0.00,29.2,27.9,00.0,37.5,30.7,14.5,0000.0,0010.91,0021.14,0009.15
2023-05-01 19:57:00,,0827.7,5.00,0.00,29.2,27.9,00.0,37.5,30.8,14.4,0000.0,0011.07,0020.73,0009.20
2023-05-01 19:58:00,,0827.7,5.00,0.00,29.2,28.0,00.0,37.5,30.8,14.5,0000.0,0011.18,0020.49,0009.28
2023-05-01 19:59:00,,0827.6,5.00,0.00,29.2,28.0,00.0,37.5,30.8,14.5,0000.0,0011.31,0021.18,0009.35
